Time,TemperatureF,DewpointF,PressureIn,WindDirection,WindDirectionDegrees,WindSpeedMPH,WindSpeedGustMPH,Humidity,HourlyPrecipIn,Conditions,Clouds,dailyrainin,SolarRadiationWatts/m^2,SoftwareType,DateUTC
2013-04-25 00:01:00,49.8,45.7,30.13,South,188,4.0,6.0,86,0.00,,,0.00,0,HR-IXPWINDi_r2_v1.2.,2013-04-25 04:01:00,
2013-04-25 00:06:00,49.6,45.2,30.14,South,171,4.0,5.0,85,0.00,,,0.00,0,HR-IXPWINDi_r2_v1.2.,2013-04-25 04:06:00,
2013-04-25 00:16:00,49.1,45.0,30.13,SSW,198,4.0,6.0,86,0.00,,,0.00,0,HR-IXPWINDi_r2_v1.2.,2013-04-25 04:16:00,
2013-04-25 00:21:00,48.7,44.3,30.14,SSW,200,6.0,9.0,85,0.00,,,0.00,0,HR-IXPWINDi_r2_v1.2.,2013-04-25 04:21:00,
2013-04-25 00:27:00,48.6,44.5,30.14,NNE,30,4.0,9.0,86,0.00,,,0.00,0,HR-IXPWINDi_r2_v1.2.,2013-04-25 04:27:00,
2013-04-25 00:32:00,48.3,44.3,30.14,SW,227,0.0,9.0,86,0.00,,,0.00,0,HR-IXPWINDi_r2_v1.2.,2013-04-25 04:32:00,
2013-04-25 00:39:00,48.1,44.1,30.15,WSW,246,2.0,6.0,86,0.00,,,0.00,0,HR-IXPWINDi_r2_v1.2.,2013-04-25 04:39:00,
2013-04-25 00:44:00,47.7,43.4,30.15,SSW,211,3.0,6.0,85,0.00,,,0.00,0,HR-IXPWINDi_r2_v1.2.,2013-04-25 04:44:00,
2013-04-25 00:51:00,47.4,43.1,30.15,East,88,1.0,7.0,85,0.00,,,0.00,0,HR-IXPWINDi_r2_v1.2.,2013-04-25 04:51:00,
2013-04-25 00:59:00,47.1,42.8,30.15,SSW,202,2.0,7.0,85,0.00,,,0.00,0,HR-IXPWINDi_r2_v1.2.,2013-04-25 04:59:00,
2013-04-25 01:05:00,47.0,43.0,30.15,SSW,196,4.0,7.0,86,0.00,,,0.00,0,HR-IXPWINDi_r2_v1.2.,2013-04-25 05:05:00,
2013-04-25 01:10:00,46.8,42.8,30.15,SSW,200,1.0,7.0,86,0.00,,,0.00,0,HR-IXPWINDi_r2_v1.2.,2013-04-25 05:10:00,
2013-04-25 01:15:00,46.7,42.7,30.15,SSW,196,0.0,7.0,86,0.00,,,0.00,0,HR-IXPWINDi_r2_v1.2.,2013-04-25 05:15:00,
2013-04-25 01:21:00,46.5,42.5,30.15,SSW,204,1.0,7.0,86,0.00,,,0.00,0,HR-IXPWINDi_r2_v1.2.,2013-04-25 05:21:00,
2013-04-25 01:26:00,46.5,42.5,30.15,SSW,202,2.0,7.0,86,0.00,,,0.00,0,HR-IXPWINDi_r2_v1.2.,2013-04-25 05:26:00,
2013-04-25 01:34:00,46.3,42.6,30.15,SSW,209,1.0,7.0,87,0.00,,,0.00,0,HR-IXPWINDi_r2_v1.2.,2013-04-25 05:34:00,
2013-04-25 01:39:00,46.1,42.4,30.15,SSW,208,0.0,7.0,87,0.00,,,0.00,0,HR-IXPWINDi_r2_v1.2.,2013-04-25 05:39:00,
2013-04-25 01:44:00,46.0,42.3,30.16,SSW,208,4.0,7.0,87,0.00,,,0.00,0,HR-IXPWINDi_r2_v1.2.,2013-04-25 05:44:00,
2013-04-25 01:50:00,45.9,42.2,30.16,SSW,193,3.0,8.0,87,0.00,,,0.00,0,HR-IXPWINDi_r2_v1.2.,2013-04-25 05:50:00,
2013-04-25 01:56:00,45.8,42.1,30.16,South,191,2.0,8.0,87,0.00,,,0.00,0,HR-IXPWINDi_r2_v1.2.,2013-04-25 05:56:00,
2013-04-25 02:04:00,45.7,42.3,30.16,SSW,200,2.0,6.0,88,0.00,,,0.00,0,HR-IXPWINDi_r2_v1.2.,2013-04-25 06:04:00,
2013-04-25 02:09:00,45.8,42.4,30.15,SSW,200,3.0,6.0,88,0.00,,,0.00,0,HR-IXPWINDi_r2_v1.2.,2013-04-25 06:09:00,
2013-04-25 02:15:00,45.7,42.3,30.15,SSW,200,1.0,4.0,88,0.00,,,0.00,0,HR-IXPWINDi_r2_v1.2.,2013-04-25 06:15:00,
2013-04-25 02:20:00,45.6,42.2,30.15,SSW,203,0.0,5.0,88,0.00,,,0.00,0,HR-IXPWINDi_r2_v1.2.,2013-04-25 06:20:00,
2013-04-25 02:25:00,45.6,42.2,30.15,SSW,203,3.0,5.0,88,0.00,,,0.00,0,HR-IXPWINDi_r2_v1.2.,2013-04-25 06:25:00,
2013-04-25 02:31:00,45.5,42.1,30.15,SSW,203,1.0,5.0,88,0.00,,,0.00,0,HR-IXPWINDi_r2_v1.2.,2013-04-25 06:31:00,
2013-04-25 02:37:00,45.4,43.2,30.15,South,181,1.0,7.0,92,0.00,,,0.00,0,HR-IXPWINDi_r2_v1.2.,2013-04-25 06:37:00,
2013-04-25 02:42:00,45.3,43.1,30.15,SSW,198,1.0,7.0,92,0.00,,,0.00,0,HR-IXPWINDi_r2_v1.2.,2013-04-25 06:42:00,
2013-04-25 02:48:00,45.2,41.8,30.15,SSW,200,0.0,7.0,88,0.00,,,0.00,0,HR-IXPWINDi_r2_v1.2.,2013-04-25 06:48:00,
2013-04-25 02:53:00,45.2,41.8,30.15,South,188,4.0,6.0,88,0.00,,,0.00,0,HR-IXPWINDi_r2_v1.2.,2013-04-25 06:53:00,
2013-04-25 02:58:00,45.0,41.6,30.15,SSW,197,0.0,6.0,88,0.00,,,0.00,0,HR-IXPWINDi_r2_v1.2.,2013-04-25 06:58:00,
2013-04-25 03:04:00,44.9,41.5,30.16,SSW,200,0.0,6.0,88,0.00,,,0.00,0,HR-IXPWINDi_r2_v1.2.,2013-04-25 07:04:00,
2013-04-25 03:10:00,44.7,41.3,30.16,SSW,198,8.0,8.0,88,0.00,,,0.00,0,HR-IXPWINDi_r2_v1.2.,2013-04-25 07:10:00,
2013-04-25 03:15:00,44.5,41.1,30.16,SSW,198,3.0,8.0,88,0.00,,,0.00,0,HR-IXPWINDi_r2_v1.2.,2013-04-25 07:15:00,
2013-04-25 03:21:00,44.6,41.5,30.16,SSW,198,1.0,8.0,89,0.00,,,0.00,0,HR-IXPWINDi_r2_v1.2.,2013-04-25 07:21:00,
2013-04-25 03:26:00,44.6,41.5,30.16,SSW,199,1.0,6.0,89,0.00,,,0.00,0,HR-IXPWINDi_r2_v1.2.,2013-04-25 07:26:00,
2013-04-25 03:34:00,44.3,40.9,30.16,SSW,205,0.0,5.0,88,0.00,,,0.00,0,HR-IXPWINDi_r2_v1.2.,2013-04-25 07:34:00,
2013-04-25 03:39:00,44.2,40.8,30.16,SSW,194,0.0,5.0,88,0.00,,,0.00,0,HR-IXPWINDi_r2_v1.2.,2013-04-25 07:39:00,
2013-04-25 03:45:00,44.2,41.1,30.17,SSW,201,2.0,5.0,89,0.00,,,0.00,0,HR-IXPWINDi_r2_v1.2.,2013-04-25 07:45:00,
2013-04-25 03:51:00,43.9,40.5,30.16,SSW,200,0.0,6.0,88,0.00,,,0.00,0,HR-IXPWINDi_r2_v1.2.,2013-04-25 07:51:00,
2013-04-25 03:56:00,44.1,40.7,30.17,NNW,336,0.0,6.0,88,0.00,,,0.00,0,HR-IXPWINDi_r2_v1.2.,2013-04-25 07:56:00,
2013-04-25 04:02:00,43.9,40.5,30.17,SSW,194,3.0,4.0,88,0.00,,,0.00,0,HR-IXPWINDi_r2_v1.2.,2013-04-25 08:02:00,
2013-04-25 04:10:00,43.5,40.1,30.17,South,178,0.0,6.0,88,0.00,,,0.00,0,HR-IXPWINDi_r2_v1.2.,2013-04-25 08:10:00,
2013-04-25 04:15:00,43.4,40.3,30.17,SW,214,3.0,6.0,89,0.00,,,0.00,0,HR-IXPWINDi_r2_v1.2.,2013-04-25 08:15:00,
2013-04-25 04:24:00,43.2,40.1,30.17,South,186,0.0,6.0,89,0.00,,,0.00,0,HR-IXPWINDi_r2_v1.2.,2013-04-25 08:24:00,
2013-04-25 04:29:00,43.0,39.9,30.17,South,191,1.0,7.0,89,0.00,,,0.00,0,HR-IXPWINDi_r2_v1.2.,2013-04-25 08:29:00,
2013-04-25 04:34:00,43.0,40.2,30.17,SSW,192,4.0,7.0,90,0.00,,,0.00,0,HR-IXPWINDi_r2_v1.2.,2013-04-25 08:34:00,
2013-04-25 04:41:00,43.1,40.3,30.17,SSW,203,1.0,5.0,90,0.00,,,0.00,0,HR-IXPWINDi_r2_v1.2.,2013-04-25 08:41:00,
2013-04-25 04:46:00,43.0,40.2,30.17,WSW,238,0.0,6.0,90,0.00,,,0.00,0,HR-IXPWINDi_r2_v1.2.,2013-04-25 08:46:00,
2013-04-25 04:52:00,43.0,40.2,30.17,SSW,203,6.0,6.0,90,0.00,,,0.00,0,HR-IXPWINDi_r2_v1.2.,2013-04-25 08:52:00,
2013-04-25 04:57:00,42.9,40.1,30.17,SSW,213,0.0,6.0,90,0.00,,,0.00,0,HR-IXPWINDi_r2_v1.2.,2013-04-25 08:57:00,
2013-04-25 05:03:00,43.1,40.3,30.17,SW,221,0.0,6.0,90,0.00,,,0.00,0,HR-IXPWINDi_r2_v1.2.,2013-04-25 09:03:00,
2013-04-25 05:08:00,42.9,40.1,30.17,SW,221,0.0,5.0,90,0.00,,,0.00,0,HR-IXPWINDi_r2_v1.2.,2013-04-25 09:08:00,
2013-04-25 05:14:00,42.6,39.8,30.18,SW,221,1.0,3.0,90,0.00,,,0.00,0,HR-IXPWINDi_r2_v1.2.,2013-04-25 09:14:00,
2013-04-25 05:22:00,42.5,39.7,30.18,South,171,4.0,4.0,90,0.00,,,0.00,0,HR-IXPWINDi_r2_v1.2.,2013-04-25 09:22:00,
2013-04-25 05:28:00,42.5,39.7,30.19,South,187,0.0,5.0,90,0.00,,,0.00,0,HR-IXPWINDi_r2_v1.2.,2013-04-25 09:28:00,
2013-04-25 05:34:00,42.2,39.4,30.19,SSE,164,0.0,5.0,90,0.00,,,0.00,0,HR-IXPWINDi_r2_v1.2.,2013-04-25 09:34:00,
2013-04-25 05:40:00,42.2,39.4,30.19,SW,219,1.0,5.0,90,0.00,,,0.00,0,HR-IXPWINDi_r2_v1.2.,2013-04-25 09:40:00,
2013-04-25 05:50:00,42.0,38.9,30.20,SW,219,0.0,4.0,89,0.00,,,0.00,0,HR-IXPWINDi_r2_v1.2.,2013-04-25 09:50:00,
2013-04-25 05:56:00,42.0,38.9,30.20,SSW,200,0.0,8.0,89,0.00,,,0.00,0,HR-IXPWINDi_r2_v1.2.,2013-04-25 09:56:00,
2013-04-25 06:02:00,42.0,38.9,30.20,SSW,200,0.0,8.0,89,0.00,,,0.00,0,HR-IXPWINDi_r2_v1.2.,2013-04-25 10:02:00,
2013-04-25 06:07:00,41.9,38.8,30.20,SSW,200,2.0,4.0,89,0.00,,,0.00,0,HR-IXPWINDi_r2_v1.2.,2013-04-25 10:07:00,
2013-04-25 06:13:00,41.8,38.5,30.20,SSW,200,0.0,5.0,88,0.00,,,0.00,0,HR-IXPWINDi_r2_v1.2.,2013-04-25 10:13:00,
2013-04-25 06:21:00,41.7,38.4,30.20,SSW,192,2.0,5.0,88,0.00,,,0.00,0,HR-IXPWINDi_r2_v1.2.,2013-04-25 10:21:00,
2013-04-25 06:32:00,41.9,38.3,30.20,WNW,284,0.0,3.0,87,0.00,,,0.00,0,HR-IXPWINDi_r2_v1.2.,2013-04-25 10:32:00,
2013-04-25 06:38:00,41.7,38.1,30.20,NNW,346,0.0,4.0,87,0.00,,,0.00,0,HR-IXPWINDi_r2_v1.2.,2013-04-25 10:38:00,
2013-04-25 06:45:00,41.6,38.0,30.20,West,259,0.0,4.0,87,0.00,,,0.00,0,HR-IXPWINDi_r2_v1.2.,2013-04-25 10:45:00,
2013-04-25 06:51:00,41.6,38.0,30.20,SW,217,1.0,3.0,87,0.00,,,0.00,5,HR-IXPWINDi_r2_v1.2.,2013-04-25 10:51:00,
2013-04-25 07:03:00,41.4,38.1,30.21,SW,217,1.0,2.0,88,0.00,,,0.00,21,HR-IXPWINDi_r2_v1.2.,2013-04-25 11:03:00,
2013-04-25 07:09:00,41.3,38.0,30.21,SW,220,0.0,2.0,88,0.00,,,0.00,21,HR-IXPWINDi_r2_v1.2.,2013-04-25 11:09:00,
2013-04-25 07:18:00,41.2,37.9,30.21,SW,220,0.0,2.0,88,0.00,,,0.00,30,HR-IXPWINDi_r2_v1.2.,2013-04-25 11:18:00,
2013-04-25 07:23:00,41.0,39.4,30.21,SW,220,0.0,2.0,94,0.00,,,0.00,33,HR-IXPWINDi_r2_v1.2.,2013-04-25 11:23:00,
2013-04-25 07:32:00,41.2,38.2,30.22,WSW,242,3.0,3.0,89,0.00,,,0.00,91,HR-IXPWINDi_r2_v1.2.,2013-04-25 11:32:00,
2013-04-25 07:38:00,41.5,38.2,30.22,SSW,209,1.0,5.0,88,0.00,,,0.00,123,HR-IXPWINDi_r2_v1.2.,2013-04-25 11:38:00,
2013-04-25 07:43:00,41.8,38.2,30.22,SW,225,0.0,5.0,87,0.00,,,0.00,123,HR-IXPWINDi_r2_v1.2.,2013-04-25 11:43:00,
2013-04-25 07:49:00,41.8,38.2,30.22,SSW,211,4.0,5.0,87,0.00,,,0.00,137,HR-IXPWINDi_r2_v1.2.,2013-04-25 11:49:00,